SCP
0 0 0 0 0 0 0 0 0 0 0 0 0 0 0 0 0 0 0 0 0 0 0 0 0 0 0 0 0 0 0 0 0 0 0 0 0 0 0 0 0 0 0 0 0 0 -0
-0 0 0 0 0 0 0 0 0 0 0 0 0 0 0 0 0 0 0 0 0 0 0 0 0 0 0 0 0 0 0 0 0 0 0 0 0 0 0 0 0 0 0 0 0 0 0
-0 0 0 0 0 0 0 0 0 0 0 0 0 0 0 0 0 0 0 0 0 0 0 0 0 0 0 0 0 0 0 0 0 0 0 0 0 0 0 0 0 0 0 0 0 0 -0
0 0 0 0 0 0 0 0 0 0 0 0 0 0 0 0 0 0 0 0 0 0 0 0 0 0 0 0 0 0 0 0 0 0 0 0 0 0 0 0 0 0 0 0 0 -0 0
0 0 0 0 0 0 0 0 0 0 0 0 0 0 0 0 0 0 0 0 0 0 0 0 0 0 -0 0 0 0 0 0 0 0 0 0 0 0 0 0 0 0 0 0 0 0 0
0 0 0 0 0 0 0 0 0 0 0 0 0 0 0 0 0 0 0 0 0 0 0 0 0 0 0 0 0 0 0 0 0 0 0 0 0 0 0 0 -0 0 0 0 -0 -0 -0
0 0 0 0 0 0 0 0 0 0 0 0 0 0 0 0 0 0 0 0 0 0 0 0 0 0 0 0 0 0 0 0 0 0 0 0 0 0 -0 -0 0 0 0 0 -0 0 0
0 0 0 0 0 0 0 0 0 0 0 0 0 0 0 0 0 0 0 0 0 0 0 0 0 0 0 0 0 0 0 0 0 0 0 0 0 0 0 0 0 0 0 -0 0 0 0
0 0 0 0 0 0 0 0 0 0 0 0 0 0 0 0 0 0 0 0 0 0 -0 -0 0 0 0 0 0 0 0 0 0 0 0 0 0 0 0 0 0 -0 0 -0 0 0 0
0 0 0 0 0 0 0 0 0 0 0 0 0 0 0 0 0 0 0 0 0 0 0 -0 -0 0 0 0 0 0 0 0 0 0 0 0 0 0 0 0 0 -0 -0 0 0 -0 -0
0 0 0 0 0 0 0 0 0 0 0 0 0 0 0 0 0 0 0 0 0 0 0 0 0 0 0 0 0 0 0 0 0 0 0 0 0 0 0 0 0 0 0 0 0 -0 0
0 0 0 0 0 0 0 0 0 0 0 0 0 0 0 0 0 0 0 0 0 0 0 0 0 0 0 0 0 0 0 0 0 0 0 0 0 0 0 0 0 0 0 0 0 -0 -0
-0 -0 -0 0 0 0 0 0 0 0 0 0 0 0 0 0 0 0 0 0 0 0 0 0 0 0 0 0 0 0 0 0 0 0 0 0 0 0 0 0 0 0 0 0 0 0 -0
-0 0 0 0 0 0 0 0 0 0 0 0 0 0 0 0 0 0 0 0 0 0 0 0 0 0 0 0 0 0 0 0 0 0 0 0 0 0 0 0 0 -0 0 0 0 0 0
0 0 0 0 0 0 0 0 0 0 0 0 0 0 0 0 0 0 0 0 0 0 0 0 -0 -0 0 0 0 0 -0 0 0 0 0 0 0 0 0 0 0 0 -0 -0 0 0 0
0 0 0 0 0 0 0 0 0 0 0 0 0 0 0 0 0 0 0 0 0 0 0 0 -0 -0 0 0 0 0 0 0 0 0 0 0 0 0 0 0 0 -0 0 0 0 0 0
0 0 0 0 0 0 0 0 0 0 0 0 0 0 0 0 0 0 0 0 0 0 0 0 0 0 0 0 0 0 0 0 0 0 0 0 0 0 0 0 -0 0 -0 0 0 0 0
0 0 0 0 0 0 0 0 0 0 0 0 0 0 0 0 0 0 0 0 0 0 0 0 -0 -0 -0 -0 0 0 0 0 0 0 0 0 0 0 -0 0 0 0 0 -0 -0 0 0
0 0 0 0 0 0 0 0 0 0 0 0 0 0 0 -0 0 0 0 0 0 -0 0 0 0 0 0 -0 -0 -0 0 0 0 0 0 0 0 0 0 0 0 0 0 0 0 0 0
0 0 0 0 0 0 0 0 0 0 0 0 0 0 -0 0 0 -0 -0 -0 -0 0 0 0 0 0 0 0 -0 -0 0 0 0 0 0 0 0 0 0 0 0 0 0 0 0 0 0
0 0 0 0 0 0 0 0 0 0 0 0 0 0 0 0 0 0 -0 0 0 0 0 0 0 0 0 -0 -0 -0 0 0 0 0 0 0 0 0 0 0 0 0 0 0 0 0 0
0 0 0 0 0 0 0 0 0 0 0 0 0 0 0 0 -0 0 0 0 0 -0 0 0 0 0 0 -0 -0 -0 -0 0 0 0 0 0 0 0 0 0 0 0 0 0 0 0 0
0 0 0 0 0 0 0 0 0 0 0 0 0 0 0 0 0 0 -0 0 -0 -0 -0 0 0 0 0 0 0 0 -0 -0 0 0 0 0 0 0 0 0 -0 0 0 0 0 0 0
0 0 0 0 0 0 0 0 0 0 0 0 0 0 0 -0 0 0 -0 -0 -0 -0 -0 0 0 -0 -0 0 -0 -0 -0 -0 0 0 0 0 0 0 0 0 0 0 0 0 0 0 0
0 0 0 0 0 0 0 0 0 0 0 0 0 0 0 0 0 -0 -0 0 -0 -0 -0 0 0 0 0 -0 -0 -0 -0 -0 -0 0 0 0 0 0 0 0 0 0 0 0 0 0 0
0 0 0 0 0 0 0 0 0 0 0 0 0 0 0 0 0 0 0 0 0 -0 0 0 -0 0 -0 -0 -0 -0 -0 -0 0 0 0 0 0 0 0 0 0 0 0 0 0 0 0
0 0 0 0 0 0 0 0 0 0 0 0 0 0 0 0 0 0 0 0 0 0 0 0 0 0 0 0 -0 -0 0 -0 0 0 0 0 0 0 0 0 0 0 0 0 0 0 0
0 0 0 0 0 0 0 0 0 0 0 0 0 0 0 0 0 0 0 0 0 0 0 0 0 0 0 0 0 0 0 -0 -0 -0 0 0 0 0 0 0 0 0 0 0 0 0 0
0 0 0 0 0 0 0 0 0 0 0 0 0 0 0 0 0 0 0 -0 -0 -0 0 -0 0 0 0 0 0 0 0 -0 -0 0 -0 0 0 0 0 0 0 0 0 0 0 0 0
Wind_Speed_500mb
40 38 36 36 36 34 31 31 32 33 35 38 38 37 39 41 45 51 51 51 52 53 51 53 50 49 42 33 55 27 30 21 19 15 63 59 45 51 24 31 35 23 44 64 68 68 68
31 33 33 33 34 36 38 39 37 36 37 37 37 37 39 39 38 42 45 48 48 49 50 48 50 50 43 30 72 72 68 60 49 31 35 64 49 68 9 32 38 45 42 52 62 64 62
29 29 32 32 32 35 36 36 37 39 40 40 40 40 39 40 41 40 43 48 47 45 49 41 42 44 53 77 55 33 39 66 70 65 57 56 65 33 19 27 61 47 23 24 40 47 41
33 32 29 28 32 33 34 37 38 38 40 41 41 42 43 43 45 47 43 43 49 46 43 33 32 34 38 62 59 75 66 55 54 63 57 52 39 62 57 38 31 13 10 20 19 29 49
40 40 39 39 37 37 38 39 40 41 42 43 43 44 41 42 47 50 49 44 41 50 35 31 33 30 36 30 56 74 76 82 59 53 56 48 46 41 17 26 17 8 28 35 37 27 27
43 44 44 43 44 43 42 42 43 44 45 46 45 46 46 45 45 48 55 53 46 36 32 22 23 12 43 37 46 44 59 74 64 54 54 44 35 16 12 10 24 23 16 13 36 35 16
46 45 44 43 43 44 44 45 46 48 48 50 52 50 45 44 46 47 50 48 10 4 21 31 39 45 14 21 9 25 24 42 49 28 28 39 18 31 46 50 35 22 12 22 36 34 12
48 49 49 49 46 47 46 47 48 48 48 49 50 50 54 50 41 38 32 18 19 26 30 48 78 71 71 41 18 38 31 29 32 36 22 15 54 44 39 24 27 25 25 39 40 37 11
49 49 52 53 50 47 47 50 50 49 50 51 51 47 45 49 50 32 23 26 34 45 17 33 60 70 75 65 38 71 24 41 14 24 43 51 25 42 40 31 30 32 35 40 39 28 18
54 54 55 56 51 46 48 50 49 50 51 52 49 49 48 45 38 19 30 15 34 24 9 14 20 28 62 50 28 90 64 26 18 44 44 34 38 37 37 38 32 36 43 38 39 22 15
55 56 56 53 50 46 49 50 48 52 52 51 48 46 46 33 40 46 23 26 22 23 10 7 8 13 27 70 30 47 90 55 40 29 23 22 41 47 44 53 48 42 28 30 29 26 6
54 55 52 52 49 49 52 50 51 53 53 49 48 46 41 40 41 34 27 25 9 4 17 12 19 26 2 47 36 5 51 52 48 26 30 38 27 47 53 35 43 45 13 15 19 13 15
54 56 55 53 51 54 56 55 53 54 52 51 50 47 40 34 39 19 18 17 4 12 16 4 28 40 42 17 32 17 16 41 24 29 34 29 42 27 27 45 33 26 18 9 7 13 16
53 54 55 55 56 59 60 56 55 52 53 56 53 47 41 39 26 18 7 2 15 13 28 40 38 35 11 40 19 28 17 36 47 30 24 28 22 51 44 41 40 47 27 12 15 7 7
55 56 54 54 57 64 63 59 55 54 54 57 52 38 37 21 12 17 4 10 7 11 17 30 35 18 20 43 23 19 47 29 51 46 20 33 34 11 48 35 39 20 34 25 5 4 4
55 52 51 54 62 66 65 61 56 53 52 46 47 35 19 9 21 20 5 14 8 26 25 33 16 13 33 32 23 29 9 14 34 46 16 8 10 34 28 34 44 42 10 17 1 16 14
52 52 51 56 61 64 62 58 57 49 44 35 32 19 15 8 21 6 5 9 10 33 21 17 22 24 31 33 24 26 16 21 41 16 38 23 8 11 32 36 53 15 39 15 14 13 15
50 52 52 56 62 60 59 58 51 49 49 37 20 6 18 19 5 2 1 7 9 22 36 23 16 15 17 26 26 14 21 20 49 39 17 46 9 19 34 8 39 36 18 42 22 14 6
48 52 55 58 62 56 57 57 52 50 49 38 25 11 15 34 5 2 6 18 24 28 27 9 11 18 20 22 12 13 21 25 44 38 22 13 32 8 16 3 10 41 38 26 14 9 17
50 54 56 59 61 59 55 53 51 47 44 36 13 7 9 5 4 6 9 14 6 20 21 22 18 18 21 23 20 15 26 20 56 41 28 17 10 55 34 25 16 15 38 29 27 13 11
51 53 57 59 61 59 58 52 47 45 39 31 6 6 9 6 7 14 7 12 17 15 19 26 10 16 19 16 26 32 34 38 32 13 21 14 16 39 58 35 8 13 36 41 34 29 29
53 56 58 60 61 62 58 51 46 43 37 19 9 8 14 19 24 11 10 7 23 15 7 15 11 23 19 15 30 29 23 11 14 12 23 13 12 11 41 58 52 32 18 48 42 19 16
57 58 61 64 64 62 56 48 46 40 33 11 14 24 17 14 7 4 5 17 12 20 24 11 21 14 18 28 25 29 27 18 18 27 17 8 9 13 40 40 41 37 46 20 31 37 24
60 61 62 65 65 62 56 47 42 40 28 23 19 19 5 9 6 7 23 28 28 26 20 31 25 10 13 52 27 16 26 31 23 34 32 14 5 6 12 12 21 26 24 29 31 36 35
61 64 63 64 63 60 56 49 35 34 30 26 15 11 4 8 10 26 24 21 36 39 22 23 37 40 46 20 5 8 8 8 12 35 34 35 14 8 6 28 10 22 17 26 17 19 25
60 63 64 62 61 59 60 51 38 27 28 26 22 21 12 10 9 26 13 27 12 10 11 22 56 51 18 7 5 6 5 8 6 23 21 33 30 8 7 12 27 12 12 16 15 20 20
60 62 62 61 60 61 61 58 40 27 23 29 27 19 27 15 28 18 16 14 13 12 8 15 23 21 20 4 3 5 3 6 3 11 13 4 10 23 10 8 10 11 14 14 27 20 13
64 63 62 60 65 68 65 57 39 30 21 27 30 15 23 20 57 26 14 34 42 20 6 14 13 5 6 6 1 4 3 6 5 5 9 7 9 4 7 9 5 40 12 10 11 14 51
67 65 62 62 72 72 67 50 36 27 25 22 36 19 23 34 57 72 59 28 41 49 31 9 6 7 7 4 5 5 4 2 10 3 9 3 8 11 9 5 23 18 30 41 43 25 18
Wind_Direction_500mb
15 13 13 11 9 7 0 350 338 328 320 310 305 302 296 291 290 288 284 278 274 273 271 271 270 270 266 240 234 225 218 244 294 229 208 215 216 223 219 234 254 247 250 254 257 264 268
6 1 0 358 360 357 353 349 347 343 340 340 334 312 304 302 295 286 284 281 277 269 267 266 269 268 264 240 254 254 249 255 257 243 228 222 221 223 298 235 238 245 243 256 264 267 271
4 360 359 355 354 347 344 343 343 339 336 334 333 335 330 320 312 302 290 282 276 272 267 269 266 269 261 248 251 256 235 238 238 241 245 234 234 226 228 254 267 266 272 278 268 268 270
3 358 352 346 342 335 333 336 336 336 336 332 329 327 326 327 323 315 310 294 281 269 265 266 269 265 257 264 265 254 234 233 230 231 233 236 249 239 242 259 293 298 289 265 261 270 268
357 355 352 349 343 338 333 333 333 332 330 328 329 328 327 323 322 322 317 307 298 275 260 243 256 246 277 259 243 257 240 233 223 230 225 236 233 222 242 227 268 225 255 263 271 255 266
345 343 341 339 338 338 334 333 332 331 329 327 323 319 320 322 322 322 318 316 307 256 242 215 227 259 246 231 241 245 244 232 226 226 232 224 211 193 206 169 221 226 240 245 254 252 251
345 342 340 336 334 332 331 329 327 327 327 325 325 322 316 311 315 322 324 334 357 357 203 209 204 204 104 224 248 238 243 210 208 223 206 194 199 212 213 219 228 243 250 252 257 262 250
346 343 340 337 332 332 332 330 326 326 325 323 321 319 319 316 309 315 313 318 357 327 293 264 255 244 246 254 293 250 225 161 182 199 176 201 220 213 225 221 221 225 247 255 270 271 268
349 347 345 341 335 332 329 328 328 325 325 324 322 319 316 315 311 308 272 308 345 340 264 278 246 238 229 246 240 254 209 199 168 193 201 207 210 209 209 218 214 224 227 245 251 274 268
350 346 343 340 337 336 331 332 330 329 326 323 321 318 316 311 308 285 299 305 321 353 286 269 212 244 212 223 255 233 226 197 208 198 208 232 215 206 212 220 213 233 224 237 248 258 258
346 342 340 341 339 338 337 335 333 331 327 323 321 318 315 302 290 289 302 289 322 141 300 225 217 211 203 188 135 209 221 204 219 174 178 206 188 215 222 216 215 236 222 237 251 246 237
352 351 350 345 342 341 339 337 335 335 331 326 322 320 315 297 274 297 297 321 329 133 247 297 52 358 153 212 228 119 183 198 212 227 215 210 196 209 222 226 215 236 250 250 261 241 242
355 351 348 346 345 342 339 338 335 335 334 328 323 318 306 287 273 309 305 334 213 208 318 49 353 341 324 184 230 257 189 188 185 194 215 210 217 225 198 212 224 208 194 243 266 210 225
354 351 351 349 347 345 342 338 337 337 336 332 326 318 302 278 276 280 357 57 222 247 252 307 350 338 37 18 337 222 252 198 209 195 182 205 217 209 209 203 206 221 199 194 198 200 199
354 352 355 356 355 349 344 339 334 332 333 334 333 329 318 337 237 177 211 209 210 354 322 337 350 356 353 353 342 332 220 220 201 199 169 197 226 230 203 207 187 205 218 203 166 223 85
356 360 360 357 354 352 349 342 337 332 332 335 337 335 7 353 166 189 116 234 297 327 315 332 349 354 331 336 324 355 301 279 230 212 215 223 199 231 216 197 223 218 153 180 202 204 224
3 2 0 354 352 352 353 355 354 346 340 341 343 334 13 161 159 160 194 230 259 275 327 331 313 315 311 321 309 330 280 27 23 245 212 248 71 313 207 203 203 180 218 223 177 180 192
4 2 358 356 355 354 354 354 352 349 350 352 335 328 339 159 103 262 286 240 307 268 308 294 286 279 297 336 302 295 261 315 358 347 271 203 148 242 243 292 206 210 184 210 221 217 207
5 3 2 1 358 357 356 354 353 351 354 347 327 289 354 177 203 123 310 279 261 279 278 256 260 280 287 295 279 303 282 339 334 348 352 319 215 263 324 183 234 202 207 203 182 119 195
4 2 1 359 359 358 355 352 352 351 353 349 338 328 339 307 154 175 249 267 268 295 296 270 288 286 280 292 257 255 275 306 329 322 345 321 249 209 216 221 178 192 206 190 186 189 171
3 0 358 357 359 356 354 351 346 348 350 351 343 293 346 315 314 304 277 288 294 304 255 277 277 265 254 282 289 253 259 296 327 292 2 2 250 210 220 243 245 206 207 199 198 193 192
2 359 356 357 356 356 353 354 351 350 350 359 316 336 340 292 296 306 306 314 317 309 301 297 298 329 321 253 261 282 259 267 285 301 349 346 293 261 217 229 237 250 263 207 208 190 144
355 356 355 354 353 356 354 352 352 347 349 346 313 316 304 275 292 8 252 333 291 301 293 286 311 317 295 292 291 289 205 207 237 278 301 290 331 336 219 215 233 240 239 225 202 193 149
351 350 350 351 350 352 356 354 357 357 349 337 325 326 325 290 323 282 310 303 323 321 301 305 312 280 276 309 267 243 231 234 239 256 229 234 304 270 251 167 220 237 199 220 209 194 181
347 345 346 348 349 349 351 352 349 353 344 340 328 304 277 278 263 298 329 326 315 310 290 288 305 304 304 293 274 275 251 209 264 258 242 204 194 269 234 195 255 227 202 193 173 217 184
348 344 344 346 347 345 346 346 340 341 337 329 326 306 261 282 256 308 308 306 299 309 317 293 316 320 288 184 174 245 262 120 281 314 292 182 203 201 327 155 215 213 177 179 144 215 186
351 348 346 345 345 345 342 340 335 328 325 323 328 318 268 260 277 288 295 282 277 313 271 303 337 333 354 200 141 250 160 85 141 301 347 199 186 219 236 284 290 236 197 103 180 221 171
349 348 347 347 345 342 341 336 329 322 309 306 315 306 289 271 290 271 258 276 292 266 248 295 333 346 312 343 150 307 208 147 162 232 315 283 321 221 189 228 100 347 297 108 283 256 194
346 345 347 346 345 340 339 335 329 320 308 290 292 313 302 281 278 294 291 276 280 266 253 275 245 221 234 293 2 291 264 164 163 267 140 308 19 308 322 355 310 329 46 359 10 328 242
Wind_Speed_850mb
40 38 36 36 36 34 31 31 32 33 35 38 38 37 39 41 45 51 51 51 52 53 51 53 50 49 42 33 55 27 30 21 19 15 63 59 45 51 24 31 35 23 44 64 68 68 68
31 33 33 33 34 36 38 39 37 36 37 37 37 37 39 39 38 42 45 48 48 49 50 48 50 50 43 30 72 72 68 60 49 31 35 64 49 68 9 32 38 45 42 52 62 64 62
29 29 32 32 32 35 36 36 37 39 40 40 40 40 39 40 41 40 43 48 47 45 49 41 42 44 53 77 55 33 39 66 70 65 57 56 65 33 19 27 61 47 23 24 40 47 41
33 32 29 28 32 33 34 37 38 38 40 41 41 42 43 43 45 47 43 43 49 46 43 33 32 34 38 62 59 75 66 55 54 63 57 52 39 62 57 38 31 13 10 20 19 29 49
40 40 39 39 37 37 38 39 40 41 42 43 43 44 41 42 47 50 49 44 41 50 35 31 33 30 36 30 56 74 76 82 59 53 56 48 46 41 17 26 17 8 28 35 37 27 27
43 44 44 43 44 43 42 42 43 44 45 46 45 46 46 45 45 48 55 53 46 36 32 22 23 12 43 37 46 44 59 74 64 54 54 44 35 16 12 10 24 23 16 13 36 35 16
46 45 44 43 43 44 44 45 46 48 48 50 52 50 45 44 46 47 50 48 10 4 21 31 39 45 14 21 9 25 24 42 49 28 28 39 18 31 46 50 35 22 12 22 36 34 12
48 49 49 49 46 47 46 47 48 48 48 49 50 50 54 50 41 38 32 18 19 26 30 48 78 71 71 41 18 38 31 29 32 36 22 15 54 44 39 24 27 25 25 39 40 37 11
49 49 52 53 50 47 47 50 50 49 50 51 51 47 45 49 50 32 23 26 34 45 17 33 60 70 75 65 38 71 24 41 14 24 43 51 25 42 40 31 30 32 35 40 39 28 18
54 54 55 56 51 46 48 50 49 50 51 52 49 49 48 45 38 19 30 15 34 24 9 14 20 28 62 50 28 90 64 26 18 44 44 34 38 37 37 38 32 36 43 38 39 22 15
55 56 56 53 50 46 49 50 48 52 52 51 48 46 46 33 40 46 23 26 22 23 10 7 8 13 27 70 30 47 90 55 40 29 23 22 41 47 44 53 48 42 28 30 29 26 6
54 55 52 52 49 49 52 50 51 53 53 49 48 46 41 40 41 34 27 25 9 4 17 12 19 26 2 47 36 5 51 52 48 26 30 38 27 47 53 35 43 45 13 15 19 13 15
54 56 55 53 51 54 56 55 53 54 52 51 50 47 40 34 39 19 18 17 4 12 16 4 28 40 42 17 32 17 16 41 24 29 34 29 42 27 27 45 33 26 18 9 7 13 16
53 54 55 55 56 59 60 56 55 52 53 56 53 47 41 39 26 18 7 2 15 13 28 40 38 35 11 40 19 28 17 36 47 30 24 28 22 51 44 41 40 47 27 12 15 7 7
55 56 54 54 57 64 63 59 55 54 54 57 52 38 37 21 12 17 4 10 7 11 17 30 35 18 20 43 23 19 47 29 51 46 20 33 34 11 48 35 39 20 34 25 5 4 4
55 52 51 54 62 66 65 61 56 53 52 46 47 35 19 9 21 20 5 14 8 26 25 33 16 13 33 32 23 29 9 14 34 46 16 8 10 34 28 34 44 42 10 17 1 16 14
52 52 51 56 61 64 62 58 57 49 44 35 32 19 15 8 21 6 5 9 10 33 21 17 22 24 31 33 24 26 16 21 41 16 38 23 8 11 32 36 53 15 39 15 14 13 15
50 52 52 56 62 60 59 58 51 49 49 37 20 6 18 19 5 2 1 7 9 22 36 23 16 15 17 26 26 14 21 20 49 39 17 46 9 19 34 8 39 36 18 42 22 14 6
48 52 55 58 62 56 57 57 52 50 49 38 25 11 15 34 5 2 6 18 24 28 27 9 11 18 20 22 12 13 21 25 44 38 22 13 32 8 16 3 10 41 38 26 14 9 17
50 54 56 59 61 59 55 53 51 47 44 36 13 7 9 5 4 6 9 14 6 20 21 22 18 18 21 23 20 15 26 20 56 41 28 17 10 55 34 25 16 15 38 29 27 13 11
51 53 57 59 61 59 58 52 47 45 39 31 6 6 9 6 7 14 7 12 17 15 19 26 10 16 19 16 26 32 34 38 32 13 21 14 16 39 58 35 8 13 36 41 34 29 29
53 56 58 60 61 62 58 51 46 43 37 19 9 8 14 19 24 11 10 7 23 15 7 15 11 23 19 15 30 29 23 11 14 12 23 13 12 11 41 58 52 32 18 48 42 19 16
57 58 61 64 64 62 56 48 46 40 33 11 14 24 17 14 7 4 5 17 12 20 24 11 21 14 18 28 25 29 27 18 18 27 17 8 9 13 40 40 41 37 46 20 31 37 24
60 61 62 65 65 62 56 47 42 40 28 23 19 19 5 9 6 7 23 28 28 26 20 31 25 10 13 52 27 16 26 31 23 34 32 14 5 6 12 12 21 26 24 29 31 36 35
61 64 63 64 63 60 56 49 35 34 30 26 15 11 4 8 10 26 24 21 36 39 22 23 37 40 46 20 5 8 8 8 12 35 34 35 14 8 6 28 10 22 17 26 17 19 25
60 63 64 62 61 59 60 51 38 27 28 26 22 21 12 10 9 26 13 27 12 10 11 22 56 51 18 7 5 6 5 8 6 23 21 33 30 8 7 12 27 12 12 16 15 20 20
60 62 62 61 60 61 61 58 40 27 23 29 27 19 27 15 28 18 16 14 13 12 8 15 23 21 20 4 3 5 3 6 3 11 13 4 10 23 10 8 10 11 14 14 27 20 13
64 63 62 60 65 68 65 57 39 30 21 27 30 15 23 20 57 26 14 34 42 20 6 14 13 5 6 6 1 4 3 6 5 5 9 7 9 4 7 9 5 40 12 10 11 14 51
67 65 62 62 72 72 67 50 36 27 25 22 36 19 23 34 57 72 59 28 41 49 31 9 6 7 7 4 5 5 4 2 10 3 9 3 8 11 9 5 23 18 30 41 43 25 18
Wind_Direction_850mb
15 13 13 11 9 7 0 350 338 328 320 310 305 302 296 291 290 288 284 278 274 273 271 271 270 270 266 240 234 225 218 244 294 229 208 215 216 223 219 234 254 247 250 254 257 264 268
6 1 0 358 360 357 353 349 347 343 340 340 334 312 304 302 295 286 284 281 277 269 267 266 269 268 264 240 254 254 249 255 257 243 228 222 221 223 298 235 238 245 243 256 264 267 271
4 360 359 355 354 347 344 343 343 339 336 334 333 335 330 320 312 302 290 282 276 272 267 269 266 269 261 248 251 256 235 238 238 241 245 234 234 226 228 254 267 266 272 278 268 268 270
3 358 352 346 342 335 333 336 336 336 336 332 329 327 326 327 323 315 310 294 281 269 265 266 269 265 257 264 265 254 234 233 230 231 233 236 249 239 242 259 293 298 289 265 261 270 268
357 355 352 349 343 338 333 333 333 332 330 328 329 328 327 323 322 322 317 307 298 275 260 243 256 246 277 259 243 257 240 233 223 230 225 236 233 222 242 227 268 225 255 263 271 255 266
345 343 341 339 338 338 334 333 332 331 329 327 323 319 320 322 322 322 318 316 307 256 242 215 227 259 246 231 241 245 244 232 226 226 232 224 211 193 206 169 221 226 240 245 254 252 251
345 342 340 336 334 332 331 329 327 327 327 325 325 322 316 311 315 322 324 334 357 357 203 209 204 204 104 224 248 238 243 210 208 223 206 194 199 212 213 219 228 243 250 252 257 262 250
346 343 340 337 332 332 332 330 326 326 325 323 321 319 319 316 309 315 313 318 357 327 293 264 255 244 246 254 293 250 225 161 182 199 176 201 220 213 225 221 221 225 247 255 270 271 268
349 347 345 341 335 332 329 328 328 325 325 324 322 319 316 315 311 308 272 308 345 340 264 278 246 238 229 246 240 254 209 199 168 193 201 207 210 209 209 218 214 224 227 245 251 274 268
350 346 343 340 337 336 331 332 330 329 326 323 321 318 316 311 308 285 299 305 321 353 286 269 212 244 212 223 255 233 226 197 208 198 208 232 215 206 212 220 213 233 224 237 248 258 258
346 342 340 341 339 338 337 335 333 331 327 323 321 318 315 302 290 289 302 289 322 141 300 225 217 211 203 188 135 209 221 204 219 174 178 206 188 215 222 216 215 236 222 237 251 246 237
352 351 350 345 342 341 339 337 335 335 331 326 322 320 315 297 274 297 297 321 329 133 247 297 52 358 153 212 228 119 183 198 212 227 215 210 196 209 222 226 215 236 250 250 261 241 242
355 351 348 346 345 342 339 338 335 335 334 328 323 318 306 287 273 309 305 334 213 208 318 49 353 341 324 184 230 257 189 188 185 194 215 210 217 225 198 212 224 208 194 243 266 210 225
354 351 351 349 347 345 342 338 337 337 336 332 326 318 302 278 276 280 357 57 222 247 252 307 350 338 37 18 337 222 252 198 209 195 182 205 217 209 209 203 206 221 199 194 198 200 199
354 352 355 356 355 349 344 339 334 332 333 334 333 329 318 337 237 177 211 209 210 354 322 337 350 356 353 353 342 332 220 220 201 199 169 197 226 230 203 207 187 205 218 203 166 223 85
356 360 360 357 354 352 349 342 337 332 332 335 337 335 7 353 166 189 116 234 297 327 315 332 349 354 331 336 324 355 301 279 230 212 215 223 199 231 216 197 223 218 153 180 202 204 224
3 2 0 354 352 352 353 355 354 346 340 341 343 334 13 161 159 160 194 230 259 275 327 331 313 315 311 321 309 330 280 27 23 245 212 248 71 313 207 203 203 180 218 223 177 180 192
4 2 358 356 355 354 354 354 352 349 350 352 335 328 339 159 103 262 286 240 307 268 308 294 286 279 297 336 302 295 261 315 358 347 271 203 148 242 243 292 206 210 184 210 221 217 207
5 3 2 1 358 357 356 354 353 351 354 347 327 289 354 177 203 123 310 279 261 279 278 256 260 280 287 295 279 303 282 339 334 348 352 319 215 263 324 183 234 202 207 203 182 119 195
4 2 1 359 359 358 355 352 352 351 353 349 338 328 339 307 154 175 249 267 268 295 296 270 288 286 280 292 257 255 275 306 329 322 345 321 249 209 216 221 178 192 206 190 186 189 171
3 0 358 357 359 356 354 351 346 348 350 351 343 293 346 315 314 304 277 288 294 304 255 277 277 265 254 282 289 253 259 296 327 292 2 2 250 210 220 243 245 206 207 199 198 193 192
2 359 356 357 356 356 353 354 351 350 350 359 316 336 340 292 296 306 306 314 317 309 301 297 298 329 321 253 261 282 259 267 285 301 349 346 293 261 217 229 237 250 263 207 208 190 144
355 356 355 354 353 356 354 352 352 347 349 346 313 316 304 275 292 8 252 333 291 301 293 286 311 317 295 292 291 289 205 207 237 278 301 290 331 336 219 215 233 240 239 225 202 193 149
351 350 350 351 350 352 356 354 357 357 349 337 325 326 325 290 323 282 310 303 323 321 301 305 312 280 276 309 267 243 231 234 239 256 229 234 304 270 251 167 220 237 199 220 209 194 181
347 345 346 348 349 349 351 352 349 353 344 340 328 304 277 278 263 298 329 326 315 310 290 288 305 304 304 293 274 275 251 209 264 258 242 204 194 269 234 195 255 227 202 193 173 217 184
348 344 344 346 347 345 346 346 340 341 337 329 326 306 261 282 256 308 308 306 299 309 317 293 316 320 288 184 174 245 262 120 281 314 292 182 203 201 327 155 215 213 177 179 144 215 186
351 348 346 345 345 345 342 340 335 328 325 323 328 318 268 260 277 288 295 282 277 313 271 303 337 333 354 200 141 250 160 85 141 301 347 199 186 219 236 284 290 236 197 103 180 221 171
349 348 347 347 345 342 341 336 329 322 309 306 315 306 289 271 290 271 258 276 292 266 248 295 333 346 312 343 150 307 208 147 162 232 315 283 321 221 189 228 100 347 297 108 283 256 194
346 345 347 346 345 340 339 335 329 320 308 290 292 313 302 281 278 294 291 276 280 266 253 275 245 221 234 293 2 291 264 164 163 267 140 308 19 308 322 355 310 329 46 359 10 328 242